FW2647 Weather Reports


time (UTC)temp
F
wind
direction
speed
knots
gust
knots
rain 1hr
in
rain 24hr
in
rain mn
in
humidity
%
barometer
mb
20260510153003 53 79 9.6 16.5 0.00 0.00 0.00 61 1016.0
20260510152005 54 43 8.7 14.8 0.00 0.00 0.00 56 1016.0
20260510151004 54 42 8.7 16.5 0.00 0.00 0.00 62 1015.9
20260510150005 53 49 8.7 18.2 0.00 0.00 0.00 63 1016.2
20260510145003 53 68 8.7 14.8 0.00 0.00 0.00 64 1016.1
20260510144003 53 61 9.6 18.2 0.00 0.00 0.00 65 1016.3
20260510143005 54 89 7.0 13.9 0.00 0.00 0.00 63 1016.1
20260510142006 55 96 7.8 14.8 0.00 0.00 0.00 61 1016.3
20260510141003 54 67 8.7 14.8 0.00 0.00 0.00 63 1016.5
20260510140008 54 64 7.8 17.4 0.00 0.00 0.00 65 1016.6
20260510135006 53 49 9.6 20.9 0.00 0.00 0.00 66 1016.6
20260510134003 54 74 9.6 17.4 0.00 0.00 0.00 65 1016.6
20260510133005 53 67 7.0 13.9 0.00 0.00 0.00 68 1016.7
20260510132005 53 72 8.7 17.4 0.00 0.00 0.00 68 1016.8
20260510131218 54 50 7.8 17.4 0.00 0.00 0.00 67 1016.7
20260510130220 54 54 8.7 18.2 0.00 0.00 0.00 65 1016.8
20260510125004 55 64 6.1 19.1 0.00 0.00 0.00 61 1016.7
20260510124216 55 64 7.8 14.8 0.00 0.00 0.00 62 1016.9
20260510123007 54 58 7.0 14.8 0.00 0.00 0.00 66 1016.9
20260510122005 53 44 8.7 14.8 0.00 0.00 0.00 65 1017.2
20260510121005 54 22 7.0 14.8 0.00 0.00 0.00 63 1017.2
20260510120007 53 65 8.7 18.2 0.00 0.00 0.00 66 1017.2
20260510115006 53 53 9.6 15.6 0.00 0.00 0.00 69 1017.3
20260510114003 53 81 7.8 13.9 0.00 0.00 0.00 70 1017.3
20260510113005 53 74 7.0 13.0 0.00 0.00 0.00 71 1017.4
20260510112006 52 67 8.7 17.4 0.00 0.00 0.00 71 1017.6
20260510111007 52 60 7.8 14.8 0.00 0.00 0.00 71 1017.7
20260510110005 52 61 7.8 18.2 0.00 0.00 0.00 72 1017.7
20260510105003 52 67 7.8 16.5 0.00 0.00 0.00 72 1017.8
20260510104004 52 58 7.8 13.0 0.00 0.00 0.00 72 1017.8
20260510103213 52 30 8.7 15.6 0.00 0.00 0.00 72 1017.8
20260510102005 52 43 7.8 13.0 0.00 0.00 0.00 71 1018.0
20260510101007 52 44 8.7 15.6 0.00 0.00 0.00 70 1017.9
20260510100005 53 41 6.1 13.0 0.00 0.00 0.00 71 1017.8
20260510095217 53 59 7.0 14.8 0.00 0.00 0.00 71 1017.8
20260510094005 53 58 7.0 13.0 0.00 0.00 0.00 72 1018.0
20260510093214 53 39 6.1 11.3 0.00 0.00 0.00 71 1018.0
20260510092215 53 62 7.8 15.6 0.00 0.00 0.00 70 1018.0
20260510091008 53 57 7.8 17.4 0.00 0.00 0.00 70 1018.0
20260510090217 53 64 7.8 17.4 0.00 0.00 0.00 71 1018.1
20260510085005 53 43 8.7 14.8 0.00 0.00 0.00 72 1018.0
20260510084006 53 71 7.8 16.5 0.00 0.00 0.00 73 1017.9
20260510083005 53 76 7.8 14.8 0.00 0.00 0.00 74 1018.0
20260510082216 52 56 7.8 14.8 0.00 0.00 0.00 74 1017.9
20260510081005 53 86 7.8 13.9 0.00 0.00 0.00 76 1017.9
20260510080004 52 87 8.7 18.2 0.00 0.00 0.00 75 1017.9
20260510075005 52 55 7.8 16.5 0.00 0.00 0.00 76 1018.0
20260510074219 52 57 7.8 16.5 0.00 0.00 0.00 76 1017.9
20260510073004 52 57 8.7 14.8 0.00 0.00 0.00 77 1018.2
20260510072003 52 81 7.0 13.0 0.00 0.00 0.00 79 1018.0
20260510071003 52 79 7.0 13.0 0.00 0.00 0.00 81 1018.1
20260510070005 51 59 5.2 11.3 0.00 0.00 0.00 83 1018.1
20260510065003 51 69 6.1 13.0 0.00 0.00 0.00 83 1018.1
20260510064005 52 70 7.0 13.0 0.00 0.00 0.00 82 1018.0
20260510063005 53 62 5.2 12.2 0.00 0.00 0.00 84 1017.8
20260510062005 52 82 5.2 9.6 0.00 0.00 0.00 89 1017.7
20260510061005 51 55 5.2 9.6 0.00 0.00 0.00 91 1017.7
20260510060003 49 56 5.2 13.0 0.00 0.00 0.00 91 1017.7
20260510055006 49 72 3.5 9.6 0.00 0.00 0.00 92 1017.6
20260510054005 49 55 5.2 9.6 0.00 0.00 0.00 93 1017.5
20260510053003 49 57 5.2 9.6 0.00 0.00 0.00 94 1017.6
20260510052218 48 65 5.2 12.2 0.00 0.00 0.00 95 1017.6
20260510051005 48 47 3.5 7.8 0.00 0.00 0.00 96 1017.6
20260510050005 48 50 5.2 9.6 0.00 0.00 0.00 96 1017.8
20260510045003 47 50 3.5 8.7 0.00 0.00 0.00 97 1017.8
20260510044003 47 51 4.3 7.8 0.00 0.00 0.00 97 1017.9
20260510043008 47 50 4.3 8.7 0.00 0.00 0.00 98 1018.0
20260510042005 47 38 5.2 9.6 0.00 0.00 0.00 98 1018.0
20260510041005 47 117 5.2 8.7 0.00 0.00 0.00 99 1018.1
20260510040005 47 47 5.2 8.7 0.00 0.00 0.00 99 1017.9
20260510035005 47 47 4.3 9.6 0.00 0.00 0.00 99 1018.0
20260510034005 47 43 3.5 8.7 0.00 0.00 0.00 99 1018.1
20260510033003 48 40 6.1 11.3 0.00 0.00 0.00 99 1018.1
20260510032005 48 56 6.1 10.4 0.00 0.00 0.00 99 1018.1
20260510031003 48 42 7.0 11.3 0.00 0.00 0.00 99 1018.2
20260510030004 48 50 7.0 12.2 0.00 0.00 0.00 99 1018.3
20260510025005 48 38 6.1 11.3 0.00 0.00 0.00 99 1018.4
20260510024003 47 45 4.3 8.7 0.00 0.00 0.00 99 1018.5
20260510023213 47 61 5.2 8.7 0.00 0.00 0.00 99 1018.6
20260510022003 48 41 4.3 9.6 0.00 0.00 0.00 99 1018.6
20260510021005 48 39 5.2 11.3 0.00 0.00 0.00 99 1018.7
20260510020003 48 44 6.1 9.6 0.00 0.00 0.00 99 1018.6
20260510015003 48 48 4.3 8.7 0.00 0.00 0.00 99 1018.6
20260510014005 48 39 4.3 7.8 0.00 0.00 0.00 99 1018.4
20260510013004 48 39 5.2 8.7 0.00 0.00 0.00 99 1018.5
20260510012006 48 42 4.3 7.8 0.00 0.00 0.00 99 1018.4
20260510011005 48 42 5.2 7.0 0.00 0.00 0.00 99 1018.4
20260510010006 48 47 5.2 8.7 0.00 0.00 0.00 99 1018.6
20260510005003 48 55 3.5 7.0 0.00 0.00 0.00 99 1018.7
20260510004003 48 52 3.5 6.1 0.00 0.00 0.00 99 1018.7
20260510003004 49 43 3.5 6.1 0.00 0.00 0.00 99 1018.9
20260510002003 49 44 3.5 7.8 0.00 0.00 0.00 99 1019.0
20260510001004 49 48 4.3 8.7 0.00 0.00 0.00 99 1018.9
20260510000005 49 42 4.3 7.0 0.00 0.00 0.00 99 1019.0
20260509235003 49 44 4.3 7.0 0.00 0.00 0.00 99 1019.0
20260509234006 49 32 4.3 7.8 0.00 0.00 0.00 99 1019.1
20260509233005 49 49 4.3 9.6 0.00 0.00 0.00 98 1019.0
20260509232005 49 37 5.2 9.6 0.00 0.00 0.00 97 1019.0
20260509231005 49 50 3.5 7.0 0.00 0.00 0.00 96 1019.0
20260509230218 49 29 3.5 7.0 0.00 0.00 0.00 96 1019.2
20260509225003 48 49 3.5 7.0 0.00 0.00 0.00 94 1019.4
20260509224005 48 46 2.6 4.3 0.00 0.00 0.00 93 1019.2
20260509223003 48 41 2.6 5.2 0.00 0.00 0.00 92 1019.3
20260509222005 48 51 2.6 4.3 0.00 0.00 0.00 91 1019.2
20260509221006 48 47 2.6 4.3 0.00 0.00 0.00 90 1019.1
20260509220007 48 42 2.6 3.5 0.00 0.00 0.00 89 1019.0
20260509215220 49 45 1.7 3.5 0.00 0.00 0.00 88 1019.0
20260509214003 49 45 2.6 3.5 0.00 0.00 0.00 86 1019.2
20260509213006 49 46 1.7 3.5 0.00 0.00 0.00 85 1019.2
20260509212003 50 42 1.7 3.5 0.00 0.00 0.00 83 1019.1
20260509211006 50 65 2.6 4.3 0.00 0.00 0.00 83 1019.1
20260509210007 50 67 1.7 6.1 0.00 0.00 0.00 82 1018.9
20260509205003 51 53 2.6 7.0 0.00 0.00 0.00 81 1018.9
20260509204003 51 77 3.5 7.0 0.00 0.00 0.00 80 1018.8
20260509203005 51 47 2.6 7.0 0.00 0.00 0.00 78 1018.8
20260509202218 51 52 2.6 5.2 0.00 0.00 0.00 78 1018.7
20260509201003 52 45 2.6 4.3 0.00 0.00 0.00 78 1018.8
20260509200003 52 57 2.6 3.5 0.00 0.00 0.00 77 1019.0
20260509195007 53 86 1.7 3.5 0.00 0.00 0.00 73 1019.1
20260509194005 54 120 0.9 3.5 0.00 0.00 0.00 70 1018.9
20260509193008 55 98 0.0 1.7 0.00 0.00 0.00 63 1018.8
20260509192006 56 31 0.9 2.6 0.00 0.00 0.00 62 1018.8
20260509191006 56 61 1.7 3.5 0.00 0.00 0.00 62 1018.6
20260509190003 57 72 2.6 3.5 0.00 0.00 0.00 61 1018.6
20260509185003 58 96 2.6 4.3 0.00 0.00 0.00 60 1018.6
20260509184218 59 122 1.7 5.2 0.00 0.00 0.00 58 1018.6
20260509183213 58 79 4.3 7.8 0.00 0.00 0.00 56 1018.5
20260509182003 60 63 4.3 9.6 0.00 0.00 0.00 54 1018.3
20260509181005 62 151 2.6 8.7 0.00 0.00 0.00 52 1018.3
20260509180005 63 78 2.6 6.1 0.00 0.00 0.00 52 1018.4
20260509175217 64 69 2.6 9.6 0.00 0.00 0.00 45 1018.5
20260509174005 65 64 2.6 7.0 0.00 0.00 0.00 43 1018.7
20260509173003 66 78 3.5 8.7 0.00 0.00 0.00 42 1018.7
20260509172003 66 78 3.5 8.7 0.00 0.00 0.00 40 1018.7
20260509171008 66 114 2.6 7.0 0.00 0.00 0.00 40 1018.7
20260509170005 67 68 3.5 8.7 0.00 0.00 0.00 40 1018.7
20260509165006 67 89 3.5 8.7 0.00 0.00 0.00 40 1018.7
20260509164005 67 147 3.5 7.8 0.00 0.00 0.00 40 1018.6
20260509163003 66 115 3.5 7.8 0.00 0.00 0.00 38 1018.7
20260509162003 66 105 3.5 8.7 0.00 0.00 0.00 38 1018.6
20260509161005 67 98 5.2 7.8 0.00 0.00 0.00 37 1018.6
20260509160004 66 122 3.5 9.6 0.00 0.00 0.00 36 1018.5
20260509155003 67 127 3.5 9.6 0.00 0.00 0.00 36 1018.5
20260509154006 67 112 3.5 8.7 0.00 0.00 0.00 36 1018.3